Flag for U.S.A. Weather past 2 weeks in Orlando, Florida, U.S.A.

Now
77 °F

Passing clouds.


Feels Like: 79 °F
Forecast: 74 / 83 °F
Wind: 8 mph from Northwest

Location: Orlando Executive Airport

Current Time: Apr 27, 2015 at 11:32:44 AM

Latest Report: Apr 27, 2015 at 10:53 AM


Visibility: 10 mi

Pressure: 29.83 "Hg

Humidity: 66%

Dew point: 65 °F

Location of OrlandoLocation

Historic Weather in Orlando — Graph

°F

Orlando temperature yesterday

Maximum temperature yesterday: 88 °F (at 3:53 PM)
Minimum temperature yesterday: 77 °F (at 2:53 AM)
Average temperature yesterday: 82 °F

Past Weeks' High & Low Weather Summary

 TemperatureHumidityPressure
High90 °F (Apr 19, 1:53 PM)97% (Apr 17, 6:53 AM)30.20 "Hg (Apr 17, 6:53 AM)
Low67 °F (Apr 20, 6:53 PM)30% (Apr 22, 4:53 PM)29.72 "Hg (Apr 26, 4:53 PM)
Average78 °F74%29.99 "Hg
* Reported Apr 12 9:53 AM — Apr 27 9:53 AM, Orlando, Weather by CustomWeather, © 2015

Note: Actual official high and low records may vary slightly from our data, if they occured in-between our weather recording intervals... More about our weather records

Advertising

Orlando weather history for previous 24 hours

 ConditionsComfort  
Time TempWeatherWind HumidityBarometerVisibility
9:53 AM
Mon, Apr 27
78 °FScattered clouds.20 mph64%29.85 "Hg10 mi
8:53 AM77 °FPassing clouds.12 mph66%29.82 "Hg10 mi
7:53 AM77 °FScattered clouds.15 mph66%29.81 "Hg10 mi
6:53 AM78 °FPassing clouds.14 mph66%29.77 "Hg10 mi
5:53 AM79 °FPassing clouds.16 mph79%29.76 "Hg10 mi
4:53 AM78 °FPassing clouds.10 mph87%29.75 "Hg8 mi
3:53 AM79 °FPassing clouds.12 mph84%29.74 "Hg8 mi
2:53 AM79 °FPassing clouds.12 mph84%29.73 "Hg9 mi
1:53 AM79 °FPassing clouds.14 mph84%29.74 "Hg9 mi
12:53 AM80 °FPassing clouds.9 mph81%29.75 "Hg9 mi
11:53 PM
Sun, Apr 26
80 °FClear.13 mph79%29.76 "Hg10 mi
10:53 PM81 °FClear.13 mph77%29.76 "Hg10 mi
9:53 PM81 °FClear.15 mph77%29.76 "Hg10 mi
8:53 PM82 °FScattered clouds.14 mph74%29.75 "Hg10 mi
7:53 PM84 °FSunny.16 mph67%29.74 "Hg10 mi
6:53 PM86 °FPassing clouds.16 mph63%29.73 "Hg10 mi
5:53 PM87 °FScattered clouds.17 mph61%29.72 "Hg10 mi
4:53 PM88 °FPassing clouds.23 mph61%29.72 "Hg10 mi
3:53 PM88 °FScattered clouds.17 mph61%29.73 "Hg10 mi
2:53 PM87 °FPassing clouds.20 mph61%29.76 "Hg10 mi
1:53 PM86 °FPassing clouds.15 mph63%29.77 "Hg10 mi
12:53 PM85 °FPartly sunny.20 mph65%29.79 "Hg9 mi
11:53 AM86 °FScattered clouds.20 mph65%29.80 "Hg10 mi
Weather by CustomWeather, © 2015

See weather overviewHow to use our weather pages